Regional Weather Roundup
Issued by NWS Upton, NY

Current Version | Previous Version | Graphics & Text | Print | Product List | Glossary On
Versions: 1 2 3 4 5 6 7 8 9 10 11 12 13 14 15 16 17 18 19 20 21 22 23 24 25 26 27 28 29 30 31 32 33 34 35 36 37 38 39 40 41 42 43 44 45 46 47 48 49 50
000 ASUS41 KOKX 260908 RWROKX REGIONAL WEATHER ROUNDUP NATIONAL WEATHER SERVICE NEW YORK NY 500 AM EDT TUE MAY 26 2015 NOTE: "FAIR" INDICATES FEW OR NO CLOUDS BELOW 12,000 FEET WITH NO SIGNIFICANT WEATHER AND/OR OBSTRUCTIONS TO VISIBILITY. NYZ071-072-176-178-NJZ106-104-261000- NEW YORK CITY METRO AREA CITY SKY/WX TMP DP RH WIND PRES REMARKS CENTRAL PARK CLEAR 68 53 58 VRB6 30.21S LAGUARDIA APRT PTCLDY 67 53 61 SW10 30.19R KENNEDY INTL PTCLDY 60 54 80 S6 30.21S NEWARK/LIBERTY PTCLDY 67 54 63 SW10 30.19R BRNX BOT. GARD N/A 68 54 60 CALM 30.21S TETERBORO CLEAR 66 53 63 S7 30.17S $$ NYZ177-179-078>081-261000- LONG ISLAND NEW YORK CITY SKY/WX TMP DP RH WIND PRES REMARKS FARMINGDALE CLEAR 60 56 86 SW8 30.21S ISLIP CLEAR 61 56 83 SW12 30.20S SHIRLEY CLEAR 61 57 87 SW10 30.22S WESTHAMPTON CLEAR 59 57 93 SW9 30.23F MONTAUK POINT N/A 59 55 87 S9G20 30.23R $$ NYZ052-065-067-261000- HUDSON VALLEY CITY SKY/WX TMP DP RH WIND PRES REMARKS WHITE PLAINS PTCLDY 64 53 67 CALM 30.18S NEWBURGH CLEAR 66 59 77 W8 30.17 MONTGOMERY CLEAR 62 60 93 S3 30.15S POUGHKEEPSIE CLOUDY 66 58 75 CALM 30.15R ALBANY PTCLDY 72 58 61 S12 30.08S $$ NJZ001-105-106-008-010-013-015-019>022-104-261000- NEW JERSEY CITY SKY/WX TMP DP RH WIND PRES REMARKS NEWARK/LIBERTY PTCLDY 67 54 63 SW10 30.19R TETERBORO CLEAR 66 53 63 S7 30.17S CALDWELL CLEAR 65 53 65 SW5 30.18S MORRISTOWN CLEAR 64 54 68 CALM 30.19S SOMERVILLE CLEAR 58 54 86 CALM 30.17S SUSSEX PTCLDY 63 57 81 CALM 30.19R ANDOVER N/A 62 57 83 SW3 30.18S TRENTON CLEAR 63 55 75 S6 30.19S MILLVILLE CLEAR 65 60 84 SW5 30.22S ATLANTIC CITY CLEAR 63 59 87 S6 30.23R WRIGHTSTOWN CLEAR 58 58 97 SW3 30.18S TOMS RIVER CLEAR N/A N/A N/A SW3 30.22R BELMAR CLEAR 63 54 72 SW6 30.22R $$ PAZ047>061-062-071-261000- EASTERN PENNSYLVANIA CITY SKY/WX TMP DP RH WIND PRES REMARKS PHILADELPHIA PTCLDY 66 57 72 S9 30.21S ALLENTOWN CLEAR 63 57 81 SW3 30.18S SCRANTON PTCLDY 67 57 70 CALM 30.17R $$ CTZ002-004>006-009-010-012-RIZ004-006-007-MAZ004-011-015-261000- SOUTHERN NEW ENGLAND IN CT CITY SKY/WX TMP DP RH WIND PRES REMARKS BRADLEY INTL MOCLDY 65 55 70 S9 30.14S HARTFORD MOCLDY 65 51 60 S9 30.16S DANBURY CLEAR 62 54 74 SE5 30.19R WTRBRY/OXFORD CLEAR 61 52 72 SW6 30.21S BRIDGEPORT CLEAR 62 55 77 S9 30.19R MERIDEN PTCLDY 61 52 72 S9 30.18S NEW HAVEN CLEAR 59 54 83 S7 30.20R CHESTER FAIR 61 55 82 S8 30.21R GROTON CLEAR 58 54 86 SW9 30.20S WILLIMANTIC PTCLDY 64 52 64 S7 30.18S IN RI CITY SKY/WX TMP DP RH WIND PRES REMARKS PROVIDENCE CLEAR 63 54 72 S15 30.19S BLOCK ISLAND CLEAR 55 52 88 SW16G22 30.22S WESTERLY CLEAR 56 53 90 S5 30.22S IN MA CITY SKY/WX TMP DP RH WIND PRES REMARKS BOSTON MOCLDY 65 53 65 SW18G25 30.12S WORCESTER MOCLDY 63 54 72 SW17 30.14S WESTFIELD MOCLDY 64 56 75 S10 30.13S PROVINCETOWN MOCLDY 59 54 82 SW22G28 30.18S NANTUCKET MOCLDY 59 55 87 SW16 30.25R $$ ANZ330-335-338-340-345-350-353-355-261000- COASTAL MARINE OBSERVATIONS STATION/POSITION TIME SKY/WX TEMP WIND PRES VSBY WAVE AIR SEA DIR/SP/G HT/PER (UTC) (F) (DEG/KT/KT) (MB) (MI) (FT/S) NY HARB ENTRANCE 0850 59 56 200/ 14/ 16 1022.4 3/ 5 4S FIRE IS 0803 54 N/A 4/ 6 20S FIRE ISLAND 0850 59 55 210/ 14/ 16 1023.4 3/ 5 GREAT SOUTH BAY 0830 60 64 220/ 12/ 14 N/A 23SW MTP 0850 57 52 210/ 14/ 16 1023.3 4/ 6 HUDSON CANYON NOT AVBL KINGS POINT 0800 64 56 200/ 9/ 10 1021.5 CENTRAL LI SOUND 0815 59 54 210/ 12/ 14 N/A EASTERN LI SOUND 0800 59 240/ 12/ 17 N/A ROBBINS REEF 0800 66 200/ 7/ 10 1021.2 $$ >>>>>>>>>>>>>>>>>>>>>>>>>>>> KEY <<<<<<<<<<<<<<<<<<<<<<<<<<< > < > SKY/WX - SKY CONDITION/PRESENT WEATHER < > TMP - TEMPERATURE IN FAHRENHEIT < > DP - DEWPOINT IN FAHRENHEIT < > RH - RELATIVE HUMIDITY IN PERCENT < > WIND - DIRECTION AND SPEED IN MPH < > PRES - MEAN SEA LEVEL PRESSURE IN INCHES OF HG < > WCI - WIND CHILL INDEX < > VSB - VISIBILITY IN MILES < > HX - HEAT INDEX < > TC - TEMPERATURE IN CELSIUS < > VRB - VARIABLE WIND DIRECTION < > < >>>>>>>>>>>>>>>>>>>>>>>>>>>> KEY <<<<<<<<<<<<<<<<<<<<<<<<<<<

USA.gov is the U.S. government's official web portal to all federal, state and local government web resources and services.